Weather History for Sioux Falls, SD

Change the Weather History Date:

Wednesday, May 2, 2012

  Actual Average Record
Temperature  
Mean Temperature 63 °F 53 °F  
Max Temperature 80 °F 66 °F 88 °F (1955)
Min Temperature 46 °F 41 °F 22 °F (1908)
Degree Days  
Heating Degree Days 2 12  
Month to date heating degree days 2 24  
Since 1 July heating degree days 5887 7431  
Cooling Degree Days 0 0  
Month to date cooling degree days 3 0  
Year to date cooling degree days 31 5  
Growing Degree Days 13 (Base 50)    
Moisture  
Dew Point 55 °F    
Average Humidity 82    
Maximum Humidity 100    
Minimum Humidity 48    
Precipitation  
Precipitation 0.00 in 0.11 in 2.05 in (1902)
Month to date precipitation 0.28 0.22  
Year to date precipitation 6.63 6.15  
Snow  
Snow 0.00 in 0.00 in 0.20 in (1954)
Month to date snowfall 0.0 0.1  
Since 1 July snowfall 15.9 44.6  
Snow Depth 0.00 in    
Sea Level Pressure  
Sea Level Pressure 29.68 in    
Wind  
Wind Speed 5 mph (SE)    
Max Wind Speed 13 mph    
Max Gust Speed 17 mph    
Visibility 7 miles    
Events Fog    
T = Trace of Precipitation, MM = Missing Value Source: NWS Daily Summary

Daily Weather History Graph

Daily Weather History Graph

Search for Another Location

Airport:

Trip Planner

Search our weather history database for the weather conditions in past years. The results will help you decide how hot, cold, wet, or windy it might be!

Date:

Astronomy

May. 02, 2012 Rise Set
Actual Time 6:17 AM CDT 8:31 PM CDT
Civil Twilight 5:45 AM CDT 9:02 PM CDT
Nautical Twilight 5:06 AM CDT 9:41 PM CDT
Astronomical Twilight 4:23 AM CDT 10:25 PM CDT
Moon 4:39 PM CDT 3:55 AM CDT
Length of Visible Light 15h 16m
Length of Day
14h 13m
Waxing Gibbous, 83% of the Moon is Illuminated
May 2
Waxing Gibbous
May 5
Full
May 12
Last Quarter
May 20
New
May 28
First Quarter

Hourly Weather History & Observations

Time (CDT) Temp. Windchill Dew Point Humidity Pressure Visibility Wind Dir Wind Speed Gust Speed Precip Events Conditions
12:44 AM 51.8 °F - 51.8 °F 100% 29.60 in 10.0 mi Calm Calm - N/A Fog Patches of Fog
12:56 AM 54.0 °F - 53.1 °F 97% 29.58 in 10.0 mi Calm Calm - N/A Fog Patches of Fog
1:32 AM 51.8 °F - 48.2 °F 88% 29.61 in 6.0 mi Calm Calm - N/A Fog Patches of Fog
1:41 AM 53.6 °F - 51.8 °F 94% 29.60 in 8.0 mi Calm Calm - N/A Fog Patches of Fog
1:56 AM 50.0 °F - 48.9 °F 96% 29.60 in 6.0 mi Calm Calm - N/A Fog Patches of Fog
2:56 AM 51.1 °F - 48.9 °F 92% 29.61 in 10.0 mi Calm Calm - N/A Fog Shallow Fog
3:31 AM 48.2 °F - 48.2 °F 100% 29.62 in 10.0 mi Calm Calm - N/A Fog Patches of Fog
3:56 AM 48.9 °F - 48.0 °F 97% 29.61 in 6.0 mi Calm Calm - N/A   Partly Cloudy
4:56 AM 50.0 °F - 48.9 °F 96% 29.63 in 8.0 mi Calm Calm - N/A Fog Patches of Fog
5:56 AM 48.0 °F - 46.9 °F 96% 29.66 in 5.0 mi Calm Calm - N/A Fog Patches of Fog
6:37 AM 46.4 °F 45.2 °F 46.4 °F 100% 29.70 in 1.0 mi NNE 3.5 mph - N/A Fog Patches of Fog
6:47 AM 46.4 °F - 46.4 °F 100% 29.70 in 0.5 mi Calm Calm - N/A Fog Fog
6:56 AM 46.9 °F - 46.0 °F 97% 29.70 in 0.2 mi Calm Calm - N/A Fog Fog
7:20 AM 51.8 °F - 50.0 °F 94% 29.71 in 0.5 mi Calm Calm - N/A Fog Fog
7:48 AM 51.8 °F - 51.8 °F 100% 29.72 in 0.2 mi Calm Calm - N/A Fog Fog
7:56 AM 52.0 °F - 51.1 °F 97% 29.72 in 0.8 mi NE 4.6 mph - N/A   Mostly Cloudy
8:27 AM 55.4 °F - 53.6 °F 94% 29.72 in 1.0 mi Calm Calm - N/A   Scattered Clouds
8:39 AM 55.4 °F - 53.6 °F 94% 29.72 in 5.0 mi NE 3.5 mph - N/A   Partly Cloudy
8:56 AM 57.0 °F - 55.0 °F 93% 29.71 in 7.0 mi Calm Calm - N/A   Partly Cloudy
9:56 AM 64.0 °F - 57.9 °F 80% 29.73 in 10.0 mi East 3.5 mph - N/A   Partly Cloudy
10:56 AM 69.1 °F - 60.1 °F 73% 29.73 in 10.0 mi Calm Calm - N/A   Clear
11:56 AM 72.0 °F - 57.9 °F 61% 29.73 in 10.0 mi ESE 4.6 mph - N/A   Clear
12:56 PM 75.0 °F - 60.1 °F 60% 29.73 in 10.0 mi ENE 4.6 mph - N/A   Clear
1:56 PM 77.0 °F - 61.0 °F 58% 29.71 in 10.0 mi SE 10.4 mph - N/A   Partly Cloudy
2:56 PM 75.2 °F - 60.8 °F 61% 29.73 in 10.0 mi SE 9.2 mph - N/A   Scattered Clouds
3:56 PM 78.1 °F - 59.0 °F 52% 29.71 in 10.0 mi SE 5.8 mph - N/A   Scattered Clouds
4:56 PM 78.1 °F - 61.0 °F 56% 29.70 in 10.0 mi South 8.1 mph - N/A   Scattered Clouds
5:56 PM 79.0 °F - 61.0 °F 54% 29.69 in 10.0 mi SE 8.1 mph - N/A   Mostly Cloudy
6:56 PM 77.0 °F - 61.0 °F 58% 29.69 in 10.0 mi South 5.8 mph - N/A   Partly Cloudy
7:56 PM 75.9 °F - 63.0 °F 64% 29.68 in 10.0 mi SSE 10.4 mph - N/A   Scattered Clouds
8:56 PM 73.9 °F - 64.9 °F 73% 29.68 in 10.0 mi SE 10.4 mph - N/A   Scattered Clouds
9:56 PM 73.0 °F - 64.9 °F 76% 29.69 in 10.0 mi SSE 10.4 mph - N/A   Scattered Clouds
10:56 PM 70.0 °F - 64.9 °F 84% 29.71 in 10.0 mi South 4.6 mph - N/A   Clear
11:56 PM 69.1 °F - 64.9 °F 87% 29.71 in 9.0 mi South 4.6 mph - N/A   Scattered Clouds